Regional Weather Roundup
Issued by NWS Kansas City/Pleasant Hill, MO

Home | Current Version | Previous Version | Graphics & Text | Print | Product List | Glossary Off
Versions: 1 2 3 4 5 6 7 8 9 10 11 12 13 14 15 16 17 18 19 20 21 22 23 24 25 26 27 28 29 30 31 32 33 34 35 36 37 38 39 40 41 42 43 44 45 46 47 48 49 50

000
ASUS43 KEAX 041810
RWREAX

WEATHER ROUNDUP FOR EASTERN KANSAS AND NORTHWEST MISSOURI
NATIONAL WEATHER SERVICE KANSAS CITY/PLEASANT HILL MO
100 PM CDT MON MAY 04 2015

KSZ040-057-103>105-MOZ028-029-037-043-041900-
...KANSAS CITY METROPOLITAN AREA...

CITY           SKY/WX    TMP DP  RH WIND       PRES   REMARKS
K.C. INTL      CLOUDY    74  61  63 SE7       30.05F
6HR MIN TEMP:  61; 6HR MAX TEMP:  74; 6HR PCP: TRACE;

K.C. DOWNTOWN  MOSUNNY   78  61  55 NE6       30.04F
6HR MIN TEMP:  66; 6HR MAX TEMP:  78; 6HR PCP: TRACE;

LEES SUMMIT    MOSUNNY   77  61  57 S8        30.06F
6HR MIN TEMP:  62; 6HR MAX TEMP:  77; 6HR PCP: TRACE;

OLATHE - IXD   NOT AVBL
OLATHE - OJC   MOSUNNY   77  63  61 S8        30.05F
6HR MIN TEMP:  60; 6HR MAX TEMP:  78; 6HR PCP:  0.03;

LAWRENCE       MOSUNNY   80  61  52 SE6       30.03F

$$

MOZ001>008-011>017-020>025-030>033-038>040-044>046-053-054-041900-
...NORTHERN AND CENTRAL MISSOURI...

CITY           SKY/WX    TMP DP  RH WIND       PRES   REMARKS
ST. JOSEPH     MOSUNNY   79  59  50 SE10      30.04S
6HR MIN TEMP:  65; 6HR MAX TEMP:  79;

MOSBY          PTCLDY    73  59  60 S6        30.05F
WARRENSBURG    PTSUNNY   77  61  57 S7        30.06F
WHITEMAN AFB   PTSUNNY   76  62  62 SW13      30.06F
6HR MIN TEMP:  62; 6HR MAX TEMP:  76; 6HR PCP:  0.04;

CLINTON        PTSUNNY   79  64  61 S9        30.08F
SEDALIA        CLOUDY    76  62  62 SW8       30.10F
6HR MIN TEMP:  63; 6HR MAX TEMP:  76; 6HR PCP:  0.01;

WARSAW         NOT AVBL
MARSHALL       CLOUDY    77  63  61 SW9       30.09S
CHILLICOTHE      N/A     75  61  61 S7        30.06R
6HR MIN TEMP:  62; 6HR MAX TEMP:  76;

MOBERLY        PTSUNNY   73  57  56 SW10      30.09F
KIRKSVILLE     PTSUNNY   77  61  57 CALM      30.05F
6HR MIN TEMP:  63; 6HR MAX TEMP:  78;


$$

MOZ041-047>049-056>058-063>065-088>090-097-041900-
...EASTERN AND SOUTHERN MISSOURI...

CITY           SKY/WX    TMP DP  RH WIND       PRES   REMARKS
ST. LOUIS INTL PTSUNNY   83  57  41 SW13      30.12F
6HR MIN TEMP:  68; 6HR MAX TEMP:  83; 6HR PCP:  0.01;

SPIRIT OF STL  PTSUNNY   80  58  46 S8        30.10F
COLUMBIA       CLOUDY    74  60  61 SW16G22   30.11S
JEFFERSON CITY CLOUDY    77  58  51 SW6       30.10F
HANNIBAL       PTSUNNY   81  57  44 SW6       30.09S
ROLLA          PTSUNNY   79  60  52 S8        30.11F
LEBANON        PTSUNNY   79  57  47 SW8       30.13F
OSAGE BEACH    CLOUDY   N/A N/A N/A SW10G18   30.09F
SPRINGFIELD    PTSUNNY   78  58  49 SW15      30.13F
BRANSON        PTSUNNY   77  57  50 SW12      30.16F
NEVADA         MOSUNNY   79  63  57 S12G20    30.10S
JOPLIN         PTSUNNY   79  62  56 S20       30.10F
WEST PLAINS    MOSUNNY   78  55  44 SW12G20   30.17F

$$

IAZ060-094-KSZ022-034>040-054-083-096-NEZ052-066-093-041900-
...KANSAS...SOUTHEAST NEBRASKA AND IOWA...

CITY           SKY/WX    TMP DP  RH WIND       PRES   REMARKS
TOPEKA         MOSUNNY   80  62  54 S8        30.02F
6HR MIN TEMP:  62; 6HR MAX TEMP:  80; 6HR PCP:  0.01;

MANHATTAN      MOSUNNY   81  59  47 S3        30.00F
EMPORIA        MOSUNNY   81  59  47 S16       30.02F
CHANUTE        MOSUNNY   80  62  54 SW16G22   30.06F
WICHITA        PTSUNNY   80  59  48 S13       30.02F
OMAHA          LGT RAIN  65  56  72 NE7       30.08R
LINCOLN        LGT RAIN  62  53  72 NE12      30.09F
FALLS CITY     PTSUNNY   74  62  66 E12       30.03F
LAMONI         CLOUDY    70  61  73 NW13      30.07R
DES MOINES     CLOUDY    70  58  65 NE9       30.10R

$$



USA.gov is the U.S. government's official web portal to all federal, state and local government web resources and services.